Year,Month,Day,Hour,Minute,Value (Times are PST for temperature in C)
2008,04,29,10,55,8.10
2008,04,29,10,56,8.10
2008,04,29,10,57,8.10
2008,04,29,10,58,8.10
2008,04,29,10,59,8.10
2008,04,29,11,00,8.20
2008,04,29,11,01,8.20
2008,04,29,11,02,8.30
2008,04,29,11,03,8.30
2008,04,29,11,04,8.30
2008,04,29,11,05,8.20
2008,04,29,11,06,8.20
2008,04,29,11,07,8.20
2008,04,29,11,08,8.20
2008,04,29,11,09,8.30
2008,04,29,11,10,8.30
2008,04,29,11,11,8.30
2008,04,29,11,12,8.30
2008,04,29,11,13,8.20
2008,04,29,11,14,8.20
2008,04,29,11,15,8.20
2008,04,29,11,16,8.20
2008,04,29,11,17,8.10
2008,04,29,11,18,8.10
2008,04,29,11,19,8.10
2008,04,29,11,20,8.10
2008,04,29,11,21,8.20
2008,04,29,11,22,8.10
2008,04,29,11,23,8.10
2008,04,29,11,24,8.10
2008,04,29,11,25,8.10
2008,04,29,11,26,8.20
2008,04,29,11,27,8.20
2008,04,29,11,28,8.20
2008,04,29,11,29,8.20
2008,04,29,11,30,8.20
2008,04,29,11,31,8.20
2008,04,29,11,32,8.30
2008,04,29,11,33,8.50
2008,04,29,11,34,8.60
2008,04,29,11,35,8.60
2008,04,29,11,36,8.60
2008,04,29,11,37,8.60
2008,04,29,11,38,8.70
2008,04,29,11,39,8.70
2008,04,29,11,40,8.70
2008,04,29,11,41,8.70
2008,04,29,11,42,8.70
2008,04,29,11,43,8.80
2008,04,29,11,44,8.80
2008,04,29,11,45,8.80
2008,04,29,11,46,8.80
2008,04,29,11,47,8.80
2008,04,29,11,48,8.90
2008,04,29,11,49,8.80
2008,04,29,11,50,8.80
2008,04,29,11,51,8.80
2008,04,29,11,52,8.80
2008,04,29,11,53,8.80
2008,04,29,11,54,8.90
2008,04,29,11,55,9.00
2008,04,29,11,56,9.10
2008,04,29,11,57,9.30
2008,04,29,11,58,9.30
2008,04,29,11,59,9.30
2008,04,29,12,00,9.20
2008,04,29,12,01,9.20
2008,04,29,12,02,9.20
2008,04,29,12,03,9.20
2008,04,29,12,04,9.20
2008,04,29,12,05,9.20
2008,04,29,12,06,9.20
2008,04,29,12,07,9.30
2008,04,29,12,08,9.20
2008,04,29,12,09,9.10
2008,04,29,12,10,9.00
2008,04,29,12,11,9.00
2008,04,29,12,12,8.90
2008,04,29,12,13,8.90
2008,04,29,12,14,8.90
2008,04,29,12,15,8.90
2008,04,29,12,16,8.90
2008,04,29,12,17,9.00
2008,04,29,12,18,9.10
2008,04,29,12,19,9.10
2008,04,29,12,20,9.10
2008,04,29,12,21,9.20
2008,04,29,12,22,9.20
2008,04,29,12,23,9.20
2008,04,29,12,24,9.00
2008,04,29,12,25,8.70
2008,04,29,12,26,8.50
2008,04,29,12,27,8.30
2008,04,29,12,28,8.20
2008,04,29,12,29,8.10
2008,04,29,12,30,8.10
2008,04,29,12,31,8.10
2008,04,29,12,32,8.10
2008,04,29,12,33,8.10
2008,04,29,12,34,8.10
2008,04,29,12,35,8.10
2008,04,29,12,36,8.20
2008,04,29,12,37,8.30
2008,04,29,12,38,8.40
2008,04,29,12,39,8.50
2008,04,29,12,40,8.70
2008,04,29,12,41,8.80
2008,04,29,12,42,8.90
2008,04,29,12,43,9.00
2008,04,29,12,44,8.90
2008,04,29,12,45,8.90
2008,04,29,12,46,8.90
2008,04,29,12,47,8.90
2008,04,29,12,48,9.00
2008,04,29,12,49,9.10
2008,04,29,12,50,9.10
2008,04,29,12,51,9.10
2008,04,29,12,52,9.10
2008,04,29,12,53,9.10
2008,04,29,12,54,9.10
2008,04,29,12,55,9.00
2008,04,29,12,56,9.00
2008,04,29,12,57,8.90
2008,04,29,12,58,8.90
2008,04,29,12,59,8.80
2008,04,29,13,00,8.80
2008,04,29,13,01,8.80
2008,04,29,13,02,8.70
2008,04,29,13,03,8.60
2008,04,29,13,04,8.60
2008,04,29,13,05,8.60
2008,04,29,13,06,8.70
2008,04,29,13,07,8.70
2008,04,29,13,08,8.80
2008,04,29,13,09,8.90
2008,04,29,13,10,8.90
2008,04,29,13,11,9.10
2008,04,29,13,12,9.20
2008,04,29,13,13,9.30
2008,04,29,13,14,9.40
2008,04,29,13,15,9.40
2008,04,29,13,16,9.40
2008,04,29,13,17,9.50
2008,04,29,13,18,9.60
2008,04,29,13,19,9.70
2008,04,29,13,20,9.80
2008,04,29,13,21,9.80
2008,04,29,13,22,9.70
2008,04,29,13,23,9.70
2008,04,29,13,24,9.60
2008,04,29,13,25,9.70
2008,04,29,13,26,9.70
2008,04,29,13,27,9.70
2008,04,29,13,28,9.70
2008,04,29,13,29,9.70
2008,04,29,13,30,9.60
2008,04,29,13,31,9.60
2008,04,29,13,32,9.60
2008,04,29,13,33,9.70
2008,04,29,13,34,9.70
2008,04,29,13,35,9.80
2008,04,29,13,36,9.90
2008,04,29,13,37,9.90
2008,04,29,13,38,9.80
2008,04,29,13,39,9.80
2008,04,29,13,40,9.80
2008,04,29,13,41,9.80
2008,04,29,13,42,9.80
2008,04,29,13,43,9.80
2008,04,29,13,44,9.90
2008,04,29,13,45,9.90
2008,04,29,13,46,10.00
2008,04,29,13,47,10.10
2008,04,29,13,48,10.10
2008,04,29,13,49,10.10
2008,04,29,13,50,10.10
2008,04,29,13,51,10.10
2008,04,29,13,52,10.20
2008,04,29,13,53,10.20
2008,04,29,13,54,10.20
2008,04,29,13,55,10.10
2008,04,29,13,56,10.00
2008,04,29,13,57,10.10
2008,04,29,13,58,10.20
2008,04,29,13,59,10.30
2008,04,29,14,00,10.40
2008,04,29,14,01,10.40
2008,04,29,14,02,10.40
2008,04,29,14,03,10.50
2008,04,29,14,04,10.60
2008,04,29,14,05,10.70
2008,04,29,14,06,10.70
2008,04,29,14,07,10.60
2008,04,29,14,08,10.60
2008,04,29,14,09,10.60
2008,04,29,14,10,10.60
2008,04,29,14,11,10.60
2008,04,29,14,12,10.50
2008,04,29,14,13,10.40
2008,04,29,14,14,10.30
2008,04,29,14,15,10.40
2008,04,29,14,16,10.50
2008,04,29,14,17,10.50
2008,04,29,14,18,10.50
2008,04,29,14,19,10.50
2008,04,29,14,20,10.40
2008,04,29,14,21,10.50
2008,04,29,14,22,10.50
2008,04,29,14,23,10.50
2008,04,29,14,24,10.50
2008,04,29,14,25,10.50
2008,04,29,14,26,10.50
2008,04,29,14,27,10.50
2008,04,29,14,28,10.50
2008,04,29,14,29,10.30
2008,04,29,14,30,10.30
2008,04,29,14,31,10.30
2008,04,29,14,32,10.50
2008,04,29,14,33,10.70
2008,04,29,14,34,10.80
2008,04,29,14,35,10.80
2008,04,29,14,36,10.80
2008,04,29,14,37,10.80
2008,04,29,14,38,10.70
2008,04,29,14,39,10.50
2008,04,29,14,40,10.50
2008,04,29,14,41,10.40
2008,04,29,14,42,10.50
2008,04,29,14,43,10.60
2008,04,29,14,44,10.60
2008,04,29,14,45,10.60
2008,04,29,14,46,10.60
2008,04,29,14,47,10.60
2008,04,29,14,48,10.60
2008,04,29,14,49,10.50
2008,04,29,14,50,10.40
2008,04,29,14,53,10.40
2008,04,29,14,54,10.40
2008,04,29,14,55,10.40
2008,04,29,14,56,10.30
2008,04,29,14,57,10.40
2008,04,29,14,58,10.40
2008,04,29,14,59,10.40
2008,04,29,15,00,10.50
2008,04,29,15,01,10.50
2008,04,29,15,02,10.50
2008,04,29,15,03,10.60
2008,04,29,15,04,10.60
2008,04,29,15,05,10.60
2008,04,29,15,06,10.60
2008,04,29,15,07,10.60
2008,04,29,15,08,10.70
2008,04,29,15,09,10.80
2008,04,29,15,10,10.80
2008,04,29,15,11,10.80
2008,04,29,15,12,10.70
2008,04,29,15,13,10.70
2008,04,29,15,14,10.70
2008,04,29,15,15,10.70
2008,04,29,15,16,10.80
2008,04,29,15,17,10.80
2008,04,29,15,18,10.70
2008,04,29,15,19,10.70
2008,04,29,15,20,10.70
2008,04,29,15,21,10.50
2008,04,29,15,22,10.40
2008,04,29,15,23,10.30
2008,04,29,15,24,10.30
2008,04,29,15,25,10.30
2008,04,29,15,26,10.30
2008,04,29,15,27,10.40
2008,04,29,15,28,10.40
2008,04,29,15,29,10.50
2008,04,29,15,30,10.70
2008,04,29,15,31,10.80
2008,04,29,15,32,10.80
2008,04,29,15,33,10.90
2008,04,29,15,34,10.80
2008,04,29,15,35,10.70
2008,04,29,15,36,10.60
2008,04,29,15,37,10.50
2008,04,29,15,38,10.40
2008,04,29,15,39,10.30
2008,04,29,15,40,10.30
2008,04,29,15,41,10.40
2008,04,29,15,42,10.40
2008,04,29,15,43,10.40
2008,04,29,15,44,10.40
2008,04,29,15,45,10.40
2008,04,29,15,46,10.30
2008,04,29,15,47,10.30
2008,04,29,15,48,10.30
2008,04,29,15,49,10.30
2008,04,29,15,50,10.40
2008,04,29,15,51,10.50
2008,04,29,15,52,10.60
2008,04,29,15,53,10.60
2008,04,29,15,54,10.50
2008,04,29,15,55,10.40
2008,04,29,15,56,10.40
2008,04,29,15,57,10.40
2008,04,29,15,58,10.50
2008,04,29,15,59,10.60
2008,04,29,16,00,10.70
2008,04,29,16,01,10.70
2008,04,29,16,02,10.80
2008,04,29,16,03,10.80
2008,04,29,16,04,10.70
2008,04,29,16,05,10.80
2008,04,29,16,06,10.90
2008,04,29,16,07,10.90
2008,04,29,16,08,10.90
2008,04,29,16,09,10.90
2008,04,29,16,10,10.90
2008,04,29,16,11,11.00
2008,04,29,16,12,10.90
2008,04,29,16,13,10.90
2008,04,29,16,14,10.80
2008,04,29,16,15,10.80
2008,04,29,16,16,10.80
2008,04,29,16,17,10.80
2008,04,29,16,18,10.70
2008,04,29,16,19,10.70
2008,04,29,16,20,10.60
2008,04,29,16,21,10.50
2008,04,29,16,22,10.50
2008,04,29,16,23,10.50
2008,04,29,16,24,10.50
2008,04,29,16,25,10.50
2008,04,29,16,26,10.40
2008,04,29,16,27,10.30
2008,04,29,16,28,10.40
2008,04,29,16,29,10.40
2008,04,29,16,30,10.40
2008,04,29,16,31,10.40
2008,04,29,16,32,10.40
2008,04,29,16,33,10.60
2008,04,29,16,34,10.70
2008,04,29,16,35,10.80
2008,04,29,16,36,10.90
2008,04,29,16,37,10.70
2008,04,29,16,38,10.60
2008,04,29,16,39,10.60
2008,04,29,16,40,10.50
2008,04,29,16,41,10.40
2008,04,29,16,42,10.30
2008,04,29,16,43,10.30
2008,04,29,16,44,10.30
2008,04,29,16,45,10.20
2008,04,29,16,46,10.10
2008,04,29,16,47,10.10
2008,04,29,16,48,10.00
2008,04,29,16,49,9.90
2008,04,29,16,50,9.80
2008,04,29,16,51,9.80
2008,04,29,16,52,9.70
2008,04,29,16,53,9.70
2008,04,29,16,54,9.80
2008,04,29,16,55,9.80
2008,04,29,16,56,9.80
2008,04,29,16,57,9.80
2008,04,29,16,58,9.70
2008,04,29,16,59,9.70
2008,04,29,17,00,9.70
2008,04,29,17,01,9.80
2008,04,29,17,02,9.80
2008,04,29,17,03,9.90
2008,04,29,17,04,9.90
2008,04,29,17,05,10.00
2008,04,29,17,06,10.00
2008,04,29,17,07,10.00
2008,04,29,17,08,10.00
2008,04,29,17,09,9.90
2008,04,29,17,10,9.90
2008,04,29,17,11,9.90
2008,04,29,17,12,9.90
2008,04,29,17,13,9.90
2008,04,29,17,14,9.80
2008,04,29,17,15,9.80
2008,04,29,17,16,9.80
2008,04,29,17,17,9.80
2008,04,29,17,18,9.70
2008,04,29,17,19,9.80
2008,04,29,17,20,9.90
2008,04,29,17,21,10.00
2008,04,29,17,22,10.00
2008,04,29,17,23,10.00
2008,04,29,17,24,10.10
2008,04,29,17,25,10.10
2008,04,29,17,26,10.00
2008,04,29,17,27,10.00
2008,04,29,17,28,10.10
2008,04,29,17,29,10.10
2008,04,29,17,30,10.10
2008,04,29,17,31,10.10
2008,04,29,17,32,10.10
2008,04,29,17,33,10.00
2008,04,29,17,34,10.00
2008,04,29,17,35,10.10
2008,04,29,17,36,10.20
2008,04,29,17,37,10.20
2008,04,29,17,38,10.20
2008,04,29,17,39,10.20
2008,04,29,17,40,10.10
2008,04,29,17,41,10.10
2008,04,29,17,42,10.10
2008,04,29,17,43,10.00
2008,04,29,17,44,10.00
2008,04,29,17,45,10.00
2008,04,29,17,46,9.90
2008,04,29,17,47,9.90
2008,04,29,17,48,9.90
2008,04,29,17,49,9.90
2008,04,29,17,50,9.90
2008,04,29,17,51,9.90
2008,04,29,17,52,9.80
2008,04,29,17,53,9.80
2008,04,29,17,54,9.70
2008,04,29,17,55,9.60
2008,04,29,17,56,9.60
2008,04,29,17,57,9.60
2008,04,29,17,58,9.60
2008,04,29,17,59,9.60
2008,04,29,18,00,9.60
2008,04,29,18,01,9.60
2008,04,29,18,02,9.50
2008,04,29,18,03,9.60
2008,04,29,18,04,9.60
2008,04,29,18,05,9.50
2008,04,29,18,06,9.50
2008,04,29,18,07,9.40
2008,04,29,18,08,9.40
2008,04,29,18,09,9.40
2008,04,29,18,10,9.30
2008,04,29,18,11,9.30
2008,04,29,18,12,9.30
2008,04,29,18,13,9.30
2008,04,29,18,14,9.30
2008,04,29,18,15,9.30
2008,04,29,18,16,9.30
2008,04,29,18,17,9.30
2008,04,29,18,18,9.30
2008,04,29,18,19,9.30
2008,04,29,18,20,9.30
2008,04,29,18,21,9.30
2008,04,29,18,22,9.30
2008,04,29,18,23,9.30
2008,04,29,18,24,9.30
2008,04,29,18,25,9.20
2008,04,29,18,26,9.10
2008,04,29,18,27,9.10
2008,04,29,18,28,9.00
2008,04,29,18,29,8.90
2008,04,29,18,30,8.90
2008,04,29,18,31,8.90
2008,04,29,18,32,9.00
2008,04,29,18,33,8.90
2008,04,29,18,34,8.90
2008,04,29,18,35,8.90
2008,04,29,18,36,9.00
2008,04,29,18,37,9.00
2008,04,29,18,38,9.00
2008,04,29,18,39,9.00
2008,04,29,18,40,9.00
2008,04,29,18,41,9.00
2008,04,29,18,42,9.10
2008,04,29,18,43,9.00
2008,04,29,18,44,9.00
2008,04,29,18,45,8.90
2008,04,29,18,46,8.80
2008,04,29,18,47,8.70
2008,04,29,18,48,8.70
2008,04,29,18,49,8.60
2008,04,29,18,50,8.60
2008,04,29,18,51,8.60
2008,04,29,18,52,8.60
2008,04,29,18,53,8.60
2008,04,29,18,54,8.50
2008,04,29,18,55,8.50
2008,04,29,18,56,8.60
2008,04,29,18,57,8.60
2008,04,29,18,58,8.60
2008,04,29,18,59,8.60
2008,04,29,19,00,8.60
2008,04,29,19,01,8.60
2008,04,29,19,02,8.60
2008,04,29,19,03,8.60
2008,04,29,19,04,8.60
2008,04,29,19,05,8.60
2008,04,29,19,06,8.60
2008,04,29,19,07,8.60
2008,04,29,19,08,8.50
2008,04,29,19,09,8.50
2008,04,29,19,10,8.50
2008,04,29,19,11,8.50
2008,04,29,19,12,8.50
2008,04,29,19,13,8.40
2008,04,29,19,14,8.40
2008,04,29,19,15,8.30
2008,04,29,19,16,8.30
2008,04,29,19,17,8.30
2008,04,29,19,18,8.20
2008,04,29,19,19,8.20
2008,04,29,19,20,8.20
2008,04,29,19,21,8.20
2008,04,29,19,22,8.20
2008,04,29,19,23,8.20
2008,04,29,19,24,8.20
2008,04,29,19,25,8.20
2008,04,29,19,26,8.10
2008,04,29,19,27,8.10
2008,04,29,19,28,8.00
2008,04,29,19,29,8.00
2008,04,29,19,30,8.00
2008,04,29,19,31,8.00
2008,04,29,19,32,8.00
2008,04,29,19,33,7.90
2008,04,29,19,34,7.90
2008,04,29,19,35,7.90
2008,04,29,19,36,7.90
2008,04,29,19,37,7.90
2008,04,29,19,38,7.90
2008,04,29,19,39,7.90
2008,04,29,19,40,7.90
2008,04,29,19,41,7.80
2008,04,29,19,42,7.80
2008,04,29,19,43,7.80
2008,04,29,19,44,7.80
2008,04,29,19,45,7.80
2008,04,29,19,46,7.80
2008,04,29,19,47,7.70
2008,04,29,19,48,7.70
2008,04,29,19,49,7.70
2008,04,29,19,50,7.70
2008,04,29,19,51,7.70
2008,04,29,19,52,7.70
2008,04,29,19,53,7.70
2008,04,29,19,54,7.70
2008,04,29,19,55,7.70
2008,04,29,19,56,7.70
2008,04,29,19,57,7.70
2008,04,29,19,58,7.70
2008,04,29,19,59,7.70
2008,04,29,20,00,7.70
2008,04,29,20,01,7.70
2008,04,29,20,02,7.60
2008,04,29,20,03,7.60
2008,04,29,20,04,7.60
2008,04,29,20,05,7.60
2008,04,29,20,06,7.50
2008,04,29,20,07,7.50
2008,04,29,20,08,7.40
2008,04,29,20,09,7.40
2008,04,29,20,10,7.40
2008,04,29,20,11,7.40
2008,04,29,20,12,7.40
2008,04,29,20,13,7.40
2008,04,29,20,14,7.40
2008,04,29,20,15,7.30
2008,04,29,20,16,7.30
2008,04,29,20,17,7.30
2008,04,29,20,18,7.30
2008,04,29,20,19,7.30
2008,04,29,20,20,7.30
2008,04,29,20,21,7.30
2008,04,29,20,22,7.30
2008,04,29,20,23,7.20
2008,04,29,20,24,7.20
2008,04,29,20,25,7.20
2008,04,29,20,26,7.20
2008,04,29,20,27,7.20
2008,04,29,20,28,7.20
2008,04,29,20,29,7.20
2008,04,29,20,30,7.20
2008,04,29,20,31,7.20
2008,04,29,20,32,7.20
2008,04,29,20,33,7.20
2008,04,29,20,34,7.20
2008,04,29,20,35,7.10
2008,04,29,20,36,7.10
2008,04,29,20,37,7.10
2008,04,29,20,38,7.10
2008,04,29,20,39,7.10
2008,04,29,20,40,7.00
2008,04,29,20,41,7.00
2008,04,29,20,42,7.00
2008,04,29,20,43,6.90
2008,04,29,20,44,6.90
2008,04,29,20,45,6.90
2008,04,29,20,46,6.80
2008,04,29,20,47,6.80
2008,04,29,20,48,6.80
2008,04,29,20,49,6.80
2008,04,29,20,50,6.80
2008,04,29,20,51,6.80
2008,04,29,20,52,6.70
2008,04,29,20,53,6.70
2008,04,29,20,54,6.70
2008,04,29,20,55,6.70
2008,04,29,20,56,6.70
2008,04,29,20,57,6.60
2008,04,29,20,58,6.60
2008,04,29,20,59,6.60
2008,04,29,21,00,6.60
2008,04,29,21,01,6.50
2008,04,29,21,02,6.50
2008,04,29,21,03,6.40
2008,04,29,21,04,6.40
2008,04,29,21,05,6.40
2008,04,29,21,06,6.40
2008,04,29,21,07,6.40
2008,04,29,21,08,6.30
2008,04,29,21,09,6.30
2008,04,29,21,10,6.30
2008,04,29,21,11,6.30
2008,04,29,21,12,6.30
2008,04,29,21,13,6.30
2008,04,29,21,14,6.30
2008,04,29,21,15,6.30
2008,04,29,21,16,6.30
2008,04,29,21,17,6.30
2008,04,29,21,18,6.30
2008,04,29,21,19,6.20
2008,04,29,21,20,6.20
2008,04,29,21,21,6.20
2008,04,29,21,22,6.20
2008,04,29,21,23,6.20
2008,04,29,21,24,6.20
2008,04,29,21,25,6.20
2008,04,29,21,26,6.20
2008,04,29,21,27,6.10
2008,04,29,21,28,6.10
2008,04,29,21,29,6.10
2008,04,29,21,30,6.10
2008,04,29,21,31,6.10
2008,04,29,21,32,6.10
2008,04,29,21,33,6.10
2008,04,29,21,34,6.10
2008,04,29,21,35,6.10
2008,04,29,21,36,6.10
2008,04,29,21,37,6.10
2008,04,29,21,38,6.10
2008,04,29,21,39,6.10
2008,04,29,21,40,6.00
2008,04,29,21,41,6.00
2008,04,29,21,42,6.00
2008,04,29,21,43,6.10
2008,04,29,21,44,6.10
2008,04,29,21,45,6.10
2008,04,29,21,46,6.00
2008,04,29,21,47,6.00
2008,04,29,21,48,5.90
2008,04,29,21,49,5.90
2008,04,29,21,50,5.90
2008,04,29,21,51,5.80
2008,04,29,21,52,5.80
2008,04,29,21,53,5.80
2008,04,29,21,54,5.80
2008,04,29,21,55,5.80
2008,04,29,21,56,5.80
2008,04,29,21,57,5.80
2008,04,29,21,58,5.70
2008,04,29,21,59,5.70
2008,04,29,22,00,5.70
2008,04,29,22,01,5.70
2008,04,29,22,02,5.70
2008,04,29,22,03,5.80
2008,04,29,22,04,5.80
2008,04,29,22,05,5.80
2008,04,29,22,06,5.80
2008,04,29,22,07,5.80
2008,04,29,22,08,5.80
2008,04,29,22,09,5.80
2008,04,29,22,10,5.80
2008,04,29,22,11,5.80
2008,04,29,22,12,5.80
2008,04,29,22,13,5.80
2008,04,29,22,14,5.80
2008,04,29,22,15,5.80
2008,04,29,22,16,5.80
2008,04,29,22,17,5.80
2008,04,29,22,18,5.80
2008,04,29,22,19,5.80
2008,04,29,22,20,5.80
2008,04,29,22,21,5.80
2008,04,29,22,22,5.80
2008,04,29,22,23,5.80
2008,04,29,22,24,5.70
2008,04,29,22,25,5.70
2008,04,29,22,26,5.70
2008,04,29,22,27,5.70
2008,04,29,22,28,5.60
2008,04,29,22,29,5.60
2008,04,29,22,30,5.60
2008,04,29,22,31,5.60
2008,04,29,22,32,5.50
2008,04,29,22,33,5.50
2008,04,29,22,34,5.40
2008,04,29,22,35,5.40
2008,04,29,22,36,5.40
2008,04,29,22,37,5.30
2008,04,29,22,38,5.30
2008,04,29,22,39,5.40
2008,04,29,22,40,5.40
2008,04,29,22,41,5.50
2008,04,29,22,42,5.50
2008,04,29,22,43,5.50
2008,04,29,22,44,5.50
2008,04,29,22,45,5.50
2008,04,29,22,46,5.50
2008,04,29,22,47,5.40
2008,04,29,22,48,5.40
2008,04,29,22,49,5.40
2008,04,29,22,50,5.40
2008,04,29,22,51,5.40
2008,04,29,22,52,5.40
2008,04,29,22,53,5.50
2008,04,29,22,54,5.40
2008,04,29,22,55,5.40
2008,04,29,22,56,5.40
2008,04,29,22,57,5.40
2008,04,29,22,58,5.40
2008,04,29,22,59,5.40
2008,04,29,23,00,5.40
2008,04,29,23,01,5.40
2008,04,29,23,02,5.40
2008,04,29,23,03,5.40
2008,04,29,23,04,5.40
2008,04,29,23,05,5.40
2008,04,29,23,06,5.40
2008,04,29,23,07,5.40
2008,04,29,23,08,5.40
2008,04,29,23,09,5.40
2008,04,29,23,10,5.30
2008,04,29,23,11,5.30
2008,04,29,23,12,5.30
2008,04,29,23,13,5.30
2008,04,29,23,14,5.30
2008,04,29,23,15,5.30
2008,04,29,23,16,5.30
2008,04,29,23,17,5.20
2008,04,29,23,18,5.20
2008,04,29,23,19,5.20
2008,04,29,23,20,5.20
2008,04,29,23,21,5.10
2008,04,29,23,22,5.10
2008,04,29,23,23,5.10
2008,04,29,23,24,5.10
2008,04,29,23,25,5.10
2008,04,29,23,26,5.10
2008,04,29,23,27,5.10
2008,04,29,23,28,5.10
2008,04,29,23,29,5.10
2008,04,29,23,30,5.10
2008,04,29,23,31,5.10
2008,04,29,23,32,5.10
2008,04,29,23,33,5.10
2008,04,29,23,34,5.10
2008,04,29,23,35,5.00
2008,04,29,23,36,5.10
2008,04,29,23,37,5.10
2008,04,29,23,38,5.10
2008,04,29,23,39,5.10
2008,04,29,23,40,5.10
2008,04,29,23,41,5.10
2008,04,29,23,42,5.10
2008,04,29,23,43,5.10
2008,04,29,23,44,5.10
2008,04,29,23,45,5.10
2008,04,29,23,46,5.10
2008,04,29,23,47,5.00
2008,04,29,23,48,5.00
2008,04,29,23,49,5.10
2008,04,29,23,50,5.10
2008,04,29,23,51,5.10
2008,04,29,23,52,5.00
2008,04,29,23,53,5.00
2008,04,29,23,54,5.10
2008,04,29,23,55,5.10
2008,04,29,23,56,5.10
2008,04,29,23,57,5.10
2008,04,29,23,58,5.10
2008,04,29,23,59,5.10
